Погода в Долиновке

Россия / Камчатский край     55°07′16″N   159°04′03″E
темп.,
°C
ветер,
м/с
пор.,
м/с
влажн.,
%
обл.,
%
осадки,
мм/ч
давл.,
гПа
погр.,
м
12 мая, ср
ср1200:00+1с27756 0.0 1011325
03:00−1с11865 0.0 101113
06:00−1сз11875 0.0 101222
09:00+4ссв136158 0.0 1011682
12:00+8с234689 0.0 10101669
15:00+10зсз1338100 0.0 10081920
18:00+9зсз234569 0.4 10071530
21:00+6ссв125823 0.6 100853
13 мая, чт
чт1300:00+3св007164 0.6 101010
03:00+2ссв117576 0.0 101010
06:00+1ссв118174 0.0 101216
09:00+5св12605 0.0 1012638
12:00+10ссв124394 0.0 10111780
15:00+11сз1336100 0.0 10102081
18:00+10ссв2438100 0.0 10111916
21:00+7всв254860 0.0 1012226
14 мая, пт
пт1400:00+3ссз00635 0.0 101310
03:00+2св00713 0.0 101410
06:00+1юз007759 0.0 101510
09:00+6юз115798 0.0 1015513
12:00+11юз124037 0.0 10141476
15:00+13зсз1235100 0.0 10132085
18:00+12с233998 0.0 10141893
21:00+9ссв235196 0.0 1016115
15 мая, сб
сб1500:00+5ссв11571 0.0 101710
03:00+3зсз00645 0.0 101810
06:00+2юз11700 0.0 101910
09:00+8юз12505 0.0 1019470
12:00+12юз23325 0.0 10181355
15:00+15юз34255 0.0 10162047
18:00+15зсз33235 0.0 10162269
21:00+9с22445 0.0 101730
16 мая, вс
вс1600:00+6ссв2256100 0.0 101817
03:00+4ссв226816 0.0 101931
06:00+3с227670 0.0 101961
09:00+8ссв2357100 0.0 1018529
12:00+13всв1042100 0.0 1017960
15:00+15ююз1236100 0.0 10141384
18:00+14св2339100 0.0 10131818
21:00+11св1158100 0.1 101269